Skip Page Navigation
NASA JPL Caltech
NASA Logo - Jet Propulsion Laboratory + View the NASA Portal
+ Center for Near-Earth Object Studies
JPL Home Earth Solar System Stars & Galaxies Technology
JPL Solar System Dynamics
BODIES ORBITS EPHEMERIDES TOOLS PHYSICAL DATA DISCOVERY FAQ SITE MAP
JPL Small-Body Database Browser
Search: [ help ]  
(2012 DR32)
Classification: Aten [NEO]          SPK-ID: 3599872
Ephemeris | Orbit Diagram | Orbital Elements | Mission Design | Physical Parameters | Close-Approach Data ]

[ hide orbit diagram ]

For accurate long-term ephemerides, please instead use our Horizons system.This orbit viewer was implemented using two-body methods, and hence should not be used for determining accurate long-term trajectories (over several years or decades) or planetary encounter circumstances.


[ revert to old Java-based viewer ]

Orbital Elements at Epoch 2459000.5 (2020-May-31.0) TDB
Reference: JPL 17 (heliocentric ecliptic J2000)
 Element Value Uncertainty (1-sigma)   Units 
e .4857511914662695 3.2193e-07  
a .8863942475024238 2.3459e-09 au
q .455827185669274 2.8565e-07 au
i 17.19922965325597 2.7126e-05 deg
node 341.0197614849441 3.0513e-06 deg
peri 312.0085679926723 1.0246e-05 deg
M 241.6725266638618 3.2634e-05 deg
tp 2459100.689431091290
(2020-Sep-08.18943109)
2.7786e-05 TDB
period 304.8167443785754
0.83
1.2101e-06
3.313e-09
d
yr
n 1.181037481172255 4.6885e-09 deg/d
Q 1.316961309335574 3.4854e-09 au
  Orbit Determination Parameters
   # obs. used (total)      115  
   # delay obs. used      3  
   # Doppler obs. used      1  
   data-arc span      1832 days (5.02 yr)  
   first obs. used      2012-02-25  
   last obs. used      2017-03-02  
   planetary ephem.      DE431  
   SB-pert. ephem.      SB431-N16  
   condition code      0  
   norm. resid. RMS      .40161  
   source      ORB  
   producer      Otto Matic  
   solution date      2018-Feb-10 07:04:47  

Additional Information
 Earth MOID = .00579527 au 
 Jupiter MOID = 3.94081 au 
 T_jup = 6.560 
[ show covariance matrix ]

Ephemeris | Orbit Diagram | Orbital Elements | Mission Design | Physical Parameters | Close-Approach Data ]

Physical Parameter Table
Parameter Symbol Value Units Sigma Reference Notes
absolute magnitude H 24.8   n/a E2017E84  

[ hide close-approach data ]
Close-Approach Data   ...sorted by Date/Time (TDB)
Date/Time (TDB) Time Uncertainty
(days_HH:MM)
Body Nominal Distance (au) Minimum Distance (au) Maximum Distance (au) V-relative (km/s) V-infinity (km/s) JD (TDB) Time Uncertainty (minutes) Semi-major axis (km) Semi-minor axis (km) range-LOV angle (deg) N-sigma BP Orbit Ref. Reference Modified
1900-Nov-29 17:08 < 00:01 Earth 0.393636483287375 0.393630227514912 0.393642739200089 24.2812433510104 24.2809645793736 2415353.214098363 0.507709986113183 487.103630389588 43.021951322009 -50.4478227957126 1042368.40376506 T 17 CATAB v2.0e-lin.ifort 2018-Feb-10 07:04:53 2018-Dec-11 15:47
1902-Jan-27 19:29 00:02 Earth 0.395896701203901 0.395894983029769 0.395898419392795 12.7717979423593 12.7712709705362 2415777.311820775 1.77541559611557 157.319289535261 34.899670222319 -59.3282967241453 1422019.86876899 T 17 CATAB v2.0e-lin.ifort 2018-Feb-10 07:04:53 2018-Dec-11 15:47
1903-Feb-16 12:45 < 00:01 Earth 0.408814934936336 0.408808125458419 0.408821744414253 29.1792823502162 29.1790589864832 2416162.031494195 0.352379436290116 339.558542840991 13.8365296223141 -0.0999753568472272 167486.409658663 T 17 CATAB v2.0e-lin.ifort 2018-Feb-10 07:04:53 2018-Dec-11 15:47
1905-Dec-03 13:32 < 00:01 Earth 0.446686823745804 0.446680630285394 0.446693017288964 26.5853401868492 26.5851158147632 2417183.063937244 0.418417389901777 434.887504778013 43.2249403448701 -45.0353133898288 1073034.79451343 T 17 CATAB v2.0e-lin.ifort 2018-Feb-10 07:04:53 2018-Dec-11 15:47
1906-Aug-30 15:29 00:03 Earth 0.499702399426468 0.499699715108885 0.499705084778894 21.8621857235686 21.8619418247116 2417453.145191489 3.28299635190683 1164.76036728613 26.5969652742721 83.5297061268603 2131904.79839792 T 17 CATAB v2.0e-lin.ifort 2018-Feb-10 07:04:53 2018-Dec-11 15:47
1907-Jan-21 07:02 00:02 Earth 0.413977356236513 0.413976666408539 0.413978046072041 12.7722317113002 12.7717277727885 2417596.792797034 1.62392391311062 124.144334986714 23.1606200487279 -77.9629896727399 2085233.45135194 T 17 CATAB v2.0e-lin.ifort 2018-Feb-10 07:04:53 2018-Dec-11 15:47
1908-Feb-19 18:21 < 00:01 Earth 0.33775479654201 0.337749008574025 0.337760584510014 26.890188855329 26.8898954828651 2417991.264383342 0.303826503428299 288.626856961515 12.6721414267492 0.415266094520368 164872.643926419 T 17 CATAB v2.0e-lin.ifort 2018-Feb-10 07:04:53 2018-Dec-11 15:47
1908-Apr-18 10:48 < 00:01 Mercury 0.0957189291928699 0.0957082671665704 0.095729591359596 27.1516016649771 27.1515449978309 2418049.949832580 0.419572397088383 562.318210539335 28.8088597637701 19.0282020930816 163048.208541612 T 17 CATAB v2.0e-lin.ifort 2018-Feb-10 07:04:53 2018-Dec-11 15:47
1909-Dec-17 17:42 00:01 Mercury 0.0657348367495337 0.0657277682417713 0.0657419053131619 17.789073157906 17.7889472141035 2418658.237526664 1.20193061474949 365.267456957532 25.2120990434118 -15.2429660608543 106189.99750231 T 17 CATAB v2.0e-lin.ifort 2018-Feb-10 07:04:53 2018-Dec-11 15:47
1911-Sep-07 12:50 00:03 Earth 0.478915545240459 0.478912897217184 0.47891819399435 20.5389505291169 20.5386796484328 2419287.034782199 2.7478744015293 955.36128975347 22.1490105998302 82.1649413021685 2307845.03422858 T 17 CATAB v2.0e-lin.ifort 2018-Feb-10 07:04:53 2018-Dec-11 15:47
1912-Jan-14 15:41 00:01 Earth 0.424775538385121 0.42477499562031 0.424776081151332 12.6634550085266 12.6629596619794 2419416.153626978 1.44647051631676 109.307758006541 25.225361776267 84.709964618057 2075875.21322951 T 17 CATAB v2.0e-lin.ifort 2018-Feb-10 07:04:53 2018-Dec-11 15:47
1913-Feb-21 21:06 < 00:01 Earth 0.265797819230927 0.26579319819377 0.2658024402681 24.6203096853876 24.6199025198398 2419820.378944514 0.243311391964733 230.451077091813 11.2728818409004 0.792130551610826 166888.827598274 T 17 CATAB v2.0e-lin.ifort 2018-Feb-10 07:04:53 2018-Dec-11 15:47
1916-Sep-14 14:20 00:02 Earth 0.456386775940406 0.456384249193482 0.456389303120882 19.1035932118235 19.1032876017138 2421121.097497721 2.18647384313235 718.141425421942 15.7632778969718 79.9713325045385 2801512.4354809 T 17 CATAB v2.0e-lin.ifort 2018-Feb-10 07:04:53 2018-Dec-11 15:47
1917-Jan-06 19:45 00:01 Earth 0.428211746632626 0.428210646539572 0.428212846727846 12.4209129725746 12.4204120056891 2421235.322616921 1.23387444673458 102.829679994059 45.7628834428828 70.8225714433275 1328565.11838252 T 17 CATAB v2.0e-lin.ifort 2018-Feb-10 07:04:53 2018-Dec-11 15:47
1918-Feb-24 18:57 < 00:01 Earth 0.195639075749565 0.195635750464885 0.195642401034257 22.4558351596172 22.4552286559829 2421649.289269764 0.17347829938052 165.841868499828 9.71848242173439 1.02695581182426 172449.020620887 T 17 CATAB v2.0e-lin.ifort 2018-Feb-10 07:04:53 2018-Dec-11 15:47
1921-Sep-22 23:21 00:02 Earth 0.431905366004423 0.431903036387357 0.431907695826072 17.576079261786 17.5757282626148 2422955.472846521 1.62474973697913 487.195184500637 15.8205153118189 76.3273852581333 3774125.30639996 T 17 CATAB v2.0e-lin.ifort 2018-Feb-10 07:04:53 2018-Dec-11 15:47
1921-Dec-30 13:00 < 00:01 Earth 0.424590398978419 0.424588887858815 0.424591910099013 12.0875994372083 12.0870802649785 2423054.041426204 0.993770113559626 98.5298032026994 64.7591913947201 58.7458235663513 928838.807690626 T 17 CATAB v2.0e-lin.ifort 2018-Feb-10 07:04:53 2018-Dec-11 15:47
1922-Jul-01 07:53 < 00:01 Mercury 0.0402569929687407 0.0402560432837874 0.0402579430295593 20.4036498942046 20.403470595609 2423236.828400007 0.344043120961049 245.791046585961 28.1489041360464 81.0244354089235 211136.019952612 T 17 CATAB v2.0e-lin.ifort 2018-Feb-10 07:04:53 2018-Dec-11 15:47
1923-Feb-27 09:57 < 00:01 Earth 0.126871184835352 0.126869247685395 0.126873121985316 20.3933282906209 20.3922984447872 2423477.914820574 0.0988769473364477 96.6073568614495 7.81203233889756 0.914006698714501 188308.108007498 T 17 CATAB v2.0e-lin.ifort 2018-Feb-10 07:04:53 2018-Dec-11 15:47
1926-Oct-01 10:58 00:01 Earth 0.406902116461675 0.406900032264427 0.406904200737564 16.0711191880188 16.0707117310111 2424789.957049493 1.12498563454815 316.784891481788 34.6910676798448 71.8704958595604 2143379.06518259 T 17 CATAB v2.0e-lin.ifort 2018-Feb-10 07:04:53 2018-Dec-11 15:47
1926-Dec-22 17:48 < 00:01 Earth 0.414547857312689 0.414546168830972 0.414549545794689 11.5730773048009 11.5725219132751 2424872.241460295 0.775244629661994 94.0329443984805 77.0853184850092 51.0276409593067 769142.124405517 T 17 CATAB v2.0e-lin.ifort 2018-Feb-10 07:04:53 2018-Dec-11 15:47
1928-Feb-29 13:21 < 00:01 Earth 0.0641074301350977 0.0641069151376602 0.0641079451325352 18.5773842840902 18.5751468740758 2425306.055949579 0.0320020137360201 25.6828784885513 5.84336008255832 -1.00966289213639 347816.017791972 T 17 CATAB v2.0e-lin.ifort 2018-Feb-10 07:04:53 2018-Dec-11 15:47
1931-Oct-09 05:39 < 00:01 Earth 0.384492487261163 0.384490708663854 0.384494265889748 14.8091008050992 14.8086328516306 2426623.735277353 0.724927248588987 229.340418772244 51.0442500043358 71.0686884557421 1159764.34695964 T 17 CATAB v2.0e-lin.ifort 2018-Feb-10 07:04:53 2018-Dec-11 15:47
1931-Dec-14 17:00 < 00:01 Earth 0.400338988157252 0.400337392966839 0.400340583347689 10.9957072380434 10.9951019344456 2426690.208391171 0.617363479508139 90.0508670514307 78.9380077666034 76.9126615605254 745229.489145206 T 17 CATAB v2.0e-lin.ifort 2018-Feb-10 07:04:53 2018-Dec-11 15:47
1933-Mar-02 00:22 < 00:01 Earth 0.0142678776372697 0.0142668828193235 0.0142688724634642 17.1980119149131 17.1871498622442 2427133.515131441 0.0233245711554093 52.4887577786276 3.31232834949496 19.1113047603417 214515.90959251 T 17 CATAB v2.0e-lin.ifort 2018-Feb-10 07:04:53 2018-Dec-11 15:47
